Terminal Aerodrome Forecast
Issued by NWS Mt. Holly, NJ

Home | Current Version | Previous Version | Text Only | Print | Product List | Glossary On
Versions: 1 2 3 4 5 6 7 8 9 10 11 12 13
000
FTAK31 PANC 250530
TAFABE
TAF
PABE 250530Z 2506/2606 26005KT P6SM VCSH BKN070
     FM250800 12008KT P6SM SCT070
     FM251400 07006KT P6SM VCFG FEW002
     FM251800 08011KT P6SM SCT200=

USA.gov is the U.S. government's official web portal to all federal, state and local government web resources and services.